Хонда - best-ip.ru

найдено: 11298 роликов
Honda hr v больные места 2211 28.03.2017 00:02:41
Honda crv 9 97 28.03.2017 00:04:52
Honda cr v ксенон 114 28.03.2017 00:01:01
Honda защита бампера 54 28.03.2017 00:00:32
125 honda cbr 846 28.03.2017 00:02:56
Honda ssta 8011 27.03.2017 00:15:24
Honda hr v 2000 drom 7 27.03.2017 00:01:29
Honda 5 114 3 19009 27.03.2017 00:04:20
Honda type r civic 167 27.03.2017 00:00:09
Honda topic тюнинг 20 26.03.2017 00:00:34
I vtec honda civic 26 26.03.2017 00:01:16
Honda n360 12 26.03.2017 00:01:58
Honda new crv 2012 41 26.03.2017 00:05:58
Honda r600 фото 599 26.03.2017 00:02:56
Honda cbr 600 f4i тюнинг 403 26.03.2017 00:02:23
Honda 2012 classic 538 26.03.2017 00:15:44
Gx35 honda 141 26.03.2017 00:00:32
Honda cr v 2002 акпп 209 26.03.2017 00:03:37
Honda accord 2008 диски 13 25.03.2017 00:19:45
Honda civic 1991г 7462 25.03.2017 00:20:51
Honda cr v блок 62 25.03.2017 00:04:59
Honda wp20x 4 25.03.2017 00:01:42
Двигатель honda rincon 29 25.03.2017 00:05:36
Honda dio 34 zx поршень 552 25.03.2017 00:02:14
Honda ext 12 d 62475 25.03.2017 00:05:34
Двигатель honda cbr1000rr 4942 25.03.2017 00:48:20
Honda cbr600rr top speed 3 25.03.2017 00:00:15
Honda shadow aero 750 250 25.03.2017 00:00:18
Honda accord 8 usa 72 25.03.2017 00:01:18
Honda xl 600 v transalp расход 1425 25.03.2017 00:07:00
Honda access europe 14 25.03.2017 00:01:57
Honda bf 40 lrtd 186 25.03.2017 00:03:30